Theta_e
320 312 308 312 303 304 299 304 310 303 306 310 314 315 314 314 312 308 329 331 334 337 341 342 344 346 346 346 344 344 344 344 343 340 337 335 333 332 331 331 329 329 329 328 328 326 325 324 323
317 314 312 305 297 295 298 303 303 305 308 311 311 315 314 312 320 322 326 330 336 340 341 342 342 345 344 343 343 343 343 341 339 336 334 332 331 330 330 328 328 327 327 326 326 324 323 322 321
313 311 304 299 295 292 295 299 303 303 305 306 308 314 314 313 320 323 326 330 331 333 340 340 341 343 343 341 340 339 338 336 335 333 331 329 328 328 327 326 325 325 324 324 323 322 321 320 319
303 305 301 293 291 294 293 295 301 303 305 306 310 308 316 322 322 323 326 328 327 327 334 340 341 342 341 339 337 337 335 333 331 329 328 327 327 325 325 324 323 322 321 321 320 319 319 318 317
303 300 293 290 291 293 294 297 299 301 301 301 306 308 311 321 323 323 323 323 322 324 325 331 336 336 336 335 334 332 330 329 327 326 325 325 324 323 322 321 321 320 319 318 317 316 316 316 315
299 298 289 288 291 292 293 296 298 299 300 301 302 309 312 323 321 320 321 320 322 320 322 323 324 329 330 329 329 328 327 326 325 324 323 322 321 319 319 318 318 317 316 315 314 313 312 312 312
297 292 288 287 291 291 292 296 295 296 299 299 301 304 312 317 320 320 319 320 320 320 320 320 319 320 322 323 323 322 322 321 320 320 318 317 315 314 313 314 314 314 313 313 311 311 310 309 309
297 293 287 286 286 287 293 295 295 297 296 302 304 301 305 316 320 319 319 318 318 318 318 318 317 316 315 315 318 316 314 314 313 312 312 312 311 310 310 308 308 309 309 309 309 308 308 308 309
300 289 285 286 288 287 293 292 295 297 298 303 306 305 316 318 320 318 316 315 316 315 316 316 314 314 312 311 310 312 311 310 308 306 307 307 304 304 304 304 304 305 305 306 307 307 307 308 306
294 287 287 288 287 288 291 292 292 293 295 301 304 311 317 317 318 317 316 314 313 313 312 312 311 311 311 310 307 303 303 301 301 301 300 302 300 299 302 303 304 305 305 307 307 307 306 303 296
293 289 291 290 292 291 291 291 292 290 290 291 295 305 312 312 312 313 316 316 315 314 314 312 309 309 305 303 301 300 301 301 301 300 301 301 301 300 299 298 298 297 301 296 298 296 296 296 296
290 293 293 294 294 292 290 292 290 289 290 299 299 309 310 310 310 310 312 314 315 317 315 313 308 306 303 302 300 300 300 300 301 301 301 299 299 298 297 296 296 295 296 295 294 294 295 295 296
290 291 294 293 293 291 293 290 289 288 290 301 303 307 308 309 309 310 312 315 316 316 315 314 308 306 304 302 301 299 299 298 299 299 299 299 297 296 296 296 295 295 295 294 293 293 294 294 295
292 292 292 293 293 293 291 289 290 288 290 297 303 306 307 309 309 309 310 310 308 309 310 314 312 308 304 302 300 300 299 298 298 298 298 299 297 296 296 296 296 295 295 295 294 293 292 293 294
293 289 290 292 292 291 291 289 287 289 292 291 301 306 307 309 305 302 302 301 301 301 302 303 304 310 305 303 302 301 301 301 298 298 298 298 299 297 296 296 296 295 295 295 294 294 293 292 294
289 288 284 290 291 292 291 285 289 290 290 291 297 302 304 302 300 299 299 299 299 299 300 301 303 301 303 306 303 302 301 300 299 299 298 299 299 298 296 295 295 296 295 295 293 293 292 291 291
287 279 284 288 291 289 289 285 290 290 291 290 290 297 300 297 296 297 298 298 298 298 299 299 300 300 300 303 305 301 301 299 300 298 298 298 299 299 296 295 295 296 295 294 294 293 291 290 291
280 281 286 284 287 287 285 284 286 287 288 286 288 289 292 293 294 297 297 298 297 297 298 299 300 300 300 302 302 300 300 299 299 299 298 299 299 299 297 296 295 295 294 294 293 291 291 291 290
286 285 283 286 287 283 282 281 283 285 285 284 284 287 289 291 293 295 295 295 295 295 296 297 298 299 299 299 299 298 297 298 298 298 299 300 301 300 297 295 295 295 294 293 293 292 291 290 290
284 283 279 283 286 283 282 279 282 285 283 284 284 284 287 289 291 293 293 292 292 293 294 296 297 298 298 299 299 298 296 296 297 300 301 302 300 301 298 296 296 295 294 293 293 292 290 290 289
281 279 277 279 282 283 279 277 281 283 285 285 285 285 286 287 288 290 291 290 290 291 291 294 295 296 297 297 298 298 298 297 296 299 299 300 299 298 298 297 296 295 294 293 292 292 291 289 290
281 282 281 281 274 271 279 272 277 279 281 282 282 281 282 283 286 287 288 288 289 290 291 292 293 294 295 296 295 294 294 294 296 297 297 297 298 297 297 297 296 294 294 293 292 294 292 290 288
281 282 280 279 274 273 276 270 277 279 278 279 280 281 281 282 284 284 285 286 287 288 288 289 291 292 293 293 293 293 292 294 296 296 296 295 296 296 296 295 294 293 293 292 292 291 291 290 289
285 280 279 277 273 268 267 268 272 276 278 278 280 280 281 282 282 283 285 286 286 286 286 287 287 288 290 291 291 290 290 291 292 293 293 295 295 295 295 295 293 292 292 291 291 291 290 290 290
280 275 268 268 269 270 262 269 274 278 278 279 278 279 280 280 280 281 282 283 284 284 284 286 286 285 286 287 288 289 289 289 290 290 291 292 293 294 294 293 291 290 290 289 289 288 287 287 287
278 275 270 262 267 270 263 267 274 279 280 280 280 280 280 280 280 280 281 282 281 282 283 283 284 284 284 284 285 286 287 287 289 289 290 290 291 292 292 292 291 289 289 288 287 287 286 286 286
278 271 276 265 259 264 270 275 278 278 276 278 278 278 278 279 280 280 280 281 281 281 282 282 283 283 284 284 284 283 284 284 284 287 289 289 290 290 290 288 287 287 287 287 286 285 285 285 285
279 279 271 269 263 262 268 266 274 272 269 272 275 275 276 278 278 279 280 280 281 282 283 282 283 282 282 283 283 283 283 283 283 285 287 288 288 288 287 286 286 286 286 286 285 284 285 285 284
273 272 272 272 273 265 263 270 270 269 268 267 268 275 271 273 277 278 278 280 281 282 281 281 281 281 281 281 282 282 282 282 282 283 284 286 287 287 286 286 285 285 285 285 284 283 283 283 283
277 277 276 269 265 269 269 271 272 269 267 266 268 274 275 275 276 276 278 280 280 280 280 280 280 280 280 281 281 281 281 281 281 281 282 284 285 286 286 286 285 284 284 284 283 282 283 282 281
Wind_Speed
11 11 2 4 4 4 1 8 7 1 4 2 3 7 8 5 4 4 3 9 11 9 4 6 7 8 8 7 9 11 13 13 13 12 11 12 12 12 12 12 12 11 12 12 12 12 12 12 12
6 6 5 2 4 2 5 5 10 5 3 6 8 6 4 5 4 4 2 12 11 8 8 8 12 14 15 14 13 15 14 14 12 11 11 11 11 12 12 11 11 11 11 11 11 11 11 11 11
5 3 4 4 2 2 5 6 6 3 4 2 4 7 4 3 3 3 5 9 10 11 8 8 13 16 18 17 17 15 15 13 13 12 12 12 11 11 11 11 11 12 11 10 11 11 10 11 11
3 5 5 5 4 5 4 3 4 5 3 7 5 7 5 4 2 4 6 9 10 10 11 10 13 16 18 16 16 12 13 13 12 11 12 11 10 10 10 10 11 11 10 10 10 10 10 10 10
3 3 3 1 3 2 4 5 5 4 4 6 2 5 5 3 7 7 7 8 9 9 11 12 18 18 16 16 14 13 12 11 11 10 10 10 9 9 9 9 9 9 9 9 9 9 10 10 10
4 4 4 1 5 3 4 6 5 6 5 6 6 5 3 6 7 7 7 8 9 8 9 10 16 17 16 14 12 12 11 10 10 9 8 9 8 8 8 8 8 8 8 8 8 8 8 8 9
4 4 3 3 5 5 4 7 5 4 4 5 4 4 4 6 7 7 6 7 8 7 8 7 8 10 15 13 12 11 9 9 9 8 7 7 7 7 7 8 7 7 7 7 8 8 8 7 8
4 4 3 6 2 3 7 4 2 6 1 1 4 3 3 4 8 7 6 6 6 6 5 6 5 5 6 5 8 9 7 7 7 6 6 4 4 6 6 6 5 6 7 7 7 7 7 7 7
3 6 4 5 5 2 6 5 9 3 3 5 5 4 7 10 7 5 4 3 4 5 5 4 3 3 5 6 3 6 6 5 4 3 3 4 2 2 3 2 2 4 4 5 6 6 8 8 8
6 5 3 2 1 3 5 5 6 6 4 5 5 7 7 6 5 4 2 3 3 3 3 3 3 2 2 3 3 2 1 0 0 1 2 2 1 1 1 2 3 4 6 7 8 9 8 7 3
5 4 4 5 4 4 5 6 6 3 5 2 3 6 5 4 4 2 6 5 3 3 2 4 3 2 2 2 2 1 1 1 2 3 3 2 1 2 2 2 2 3 4 3 5 5 3 5 3
7 8 5 2 4 3 3 7 4 3 3 5 6 7 6 6 5 4 4 3 2 3 5 5 5 2 2 2 2 3 2 2 2 3 2 1 1 2 2 2 3 3 2 4 4 3 4 5 6
7 3 4 2 3 3 3 3 2 3 2 6 7 8 7 5 6 5 2 2 3 2 5 5 4 4 3 2 2 2 2 2 3 2 2 1 2 2 2 3 2 3 3 2 4 4 4 4 5
4 6 4 3 5 2 3 3 3 2 1 4 6 8 7 7 6 3 3 6 8 8 7 2 4 5 5 4 3 3 3 3 3 3 3 3 2 2 3 3 3 3 2 3 3 4 4 4 4
5 4 2 6 5 2 2 4 1 5 3 2 7 8 7 7 9 7 5 7 7 5 7 9 7 4 4 4 4 3 4 3 3 4 4 5 4 4 4 3 3 3 3 4 4 4 3 4 4
1 4 3 4 10 5 6 2 0 4 4 2 8 7 8 9 8 8 8 7 9 8 9 9 9 9 7 6 5 4 4 3 4 4 4 6 5 5 4 3 4 3 2 2 3 3 4 4 4
8 1 2 2 5 5 6 3 9 13 1 8 5 7 8 10 9 8 8 8 8 8 9 9 9 9 9 8 4 2 2 3 4 3 4 5 6 6 3 3 4 3 2 3 3 2 2 3 4
3 3 4 4 7 8 7 5 8 10 12 8 12 9 9 8 7 7 9 8 9 9 9 9 9 11 11 9 4 3 3 4 4 4 4 5 5 5 4 4 4 3 2 3 2 3 2 3 4
3 2 4 2 5 7 5 5 5 6 11 13 11 9 9 8 6 8 8 8 8 8 10 11 11 11 9 6 4 3 3 3 3 4 7 7 5 5 4 3 4 4 4 4 4 2 3 4 2
7 4 5 7 6 5 5 4 4 7 6 8 9 10 9 8 9 9 8 8 8 7 8 10 11 11 9 7 6 3 3 3 4 4 5 6 6 5 4 5 5 5 4 5 4 4 2 3 2
3 3 3 5 8 1 2 2 3 5 8 9 10 7 11 9 11 11 12 10 8 9 9 10 10 10 8 8 6 6 5 4 4 6 5 5 6 6 5 6 5 5 4 4 5 4 5 3 3
3 4 4 5 6 1 6 5 4 4 7 8 8 9 9 10 11 13 13 14 13 12 11 10 10 9 10 9 7 7 5 8 5 7 4 6 6 6 6 6 6 6 4 5 5 5 5 4 5
4 2 2 2 3 4 6 5 3 6 3 5 7 9 9 9 11 12 11 11 10 10 10 10 12 12 12 9 7 7 8 7 7 8 9 7 6 7 7 7 6 6 4 6 6 5 5 4 4
4 4 2 3 3 5 4 4 3 4 5 4 6 8 9 10 10 11 11 12 12 10 10 9 13 12 14 13 13 10 11 12 11 11 10 9 6 7 8 8 7 7 6 6 6 6 6 5 5
7 6 6 8 6 6 2 2 8 4 6 7 7 7 7 7 8 9 11 12 13 13 12 11 12 13 14 14 14 14 15 14 14 14 11 12 10 8 8 9 8 7 7 6 6 6 6 6 4
4 5 7 5 3 6 2 7 5 5 6 8 8 5 7 8 8 8 9 8 8 10 8 10 12 12 13 14 14 13 14 11 12 13 12 10 11 10 9 8 8 7 6 6 5 4 4 5 5
4 4 2 6 2 5 4 5 2 3 6 7 6 5 6 6 7 8 8 7 8 8 10 12 15 15 15 15 14 14 14 15 15 19 16 12 12 11 11 7 7 6 6 6 6 4 5 5 4
3 1 5 4 4 7 7 6 6 6 3 2 3 4 3 5 6 7 7 8 8 10 9 12 12 13 13 15 14 13 16 16 17 17 18 16 15 11 10 7 6 6 6 6 6 5 5 5 4
3 3 3 4 5 6 4 8 5 8 7 4 5 5 6 6 6 7 7 7 8 8 10 10 11 13 14 14 15 15 16 17 18 17 18 17 15 13 10 9 8 7 6 6 5 5 5 5 5
2 6 5 6 7 4 2 11 1 6 6 5 5 7 6 6 7 7 8 8 9 9 10 11 11 12 13 14 15 16 16 16 16 17 19 19 17 13 9 7 8 6 6 6 6 6 5 5 5
Wind_Direction
324 310 286 39 77 59 279 190 207 101 49 58 7 101 114 52 8 107 154 358 340 323 111 74 74 82 92 104 107 103 86 96 90 94 95 95 92 84 74 67 63 56 54 50 50 46 44 43 34
316 321 34 67 84 89 339 70 78 72 144 122 88 119 64 73 45 90 55 344 353 31 64 75 85 84 85 85 88 91 102 96 88 89 85 81 81 84 83 74 64 58 52 48 45 43 39 37 39
284 212 74 88 110 55 127 11 112 66 53 92 99 57 64 35 61 48 360 357 32 34 43 72 84 90 88 81 80 80 83 87 88 84 81 74 70 70 72 71 66 58 50 44 40 38 36 31 27
360 11 16 82 108 337 100 329 15 111 38 39 108 67 76 41 46 32 20 19 47 37 41 70 81 91 90 89 86 80 86 88 86 82 82 78 73 70 65 63 61 61 51 43 38 33 29 27 24
27 59 52 56 81 97 42 8 355 62 107 31 35 141 81 66 81 57 46 38 44 43 47 56 70 75 73 76 82 82 79 82 83 80 80 80 74 70 65 58 60 56 49 42 36 27 24 20 15
22 89 59 241 98 132 40 5 354 32 29 5 52 87 79 104 72 59 57 54 47 45 51 52 57 65 75 78 78 81 78 78 75 73 74 76 76 66 67 56 51 49 45 40 32 25 20 16 12
99 83 180 91 133 50 1 334 35 36 33 12 316 70 111 95 94 86 69 63 61 47 54 48 60 68 67 65 71 72 70 69 72 77 73 79 81 76 60 49 34 36 35 28 20 12 7 2 6
99 95 43 25 15 44 343 17 3 50 22 352 9 99 162 145 122 107 88 75 73 68 56 58 42 67 73 77 60 72 70 75 72 65 51 50 79 79 65 57 32 23 15 14 5 357 354 351 331
54 59 41 14 33 66 1 19 338 331 99 56 26 72 114 127 130 109 112 101 93 77 72 74 88 82 99 94 86 73 79 73 59 48 344 312 295 112 70 68 19 20 346 343 346 342 342 349 360
64 77 79 330 30 26 339 50 330 26 23 63 62 86 121 133 142 143 139 89 68 65 88 123 103 110 144 121 119 118 118 67 283 277 294 335 348 336 221 258 290 317 324 334 319 343 356 352 347
34 79 148 15 25 360 350 359 317 23 51 54 100 152 133 138 166 156 63 84 120 155 132 145 151 163 161 160 181 207 212 228 244 238 247 281 325 303 295 300 323 327 341 339 339 340 330 325 323
87 33 74 13 6 28 341 305 356 40 147 119 93 146 124 122 103 77 58 46 24 211 167 157 150 155 171 185 216 224 209 227 255 237 232 309 304 287 312 326 330 335 315 321 322 319 312 314 305
78 126 62 181 25 80 326 322 288 74 184 117 99 113 124 117 110 98 120 241 266 154 166 189 178 204 221 243 267 261 243 235 229 229 264 267 278 279 298 287 290 284 292 298 307 305 308 310 302
109 105 125 39 357 75 17 293 31 249 347 118 119 115 116 104 127 90 14 15 36 33 14 43 205 200 197 213 245 261 275 267 245 260 248 259 263 263 268 279 281 282 270 286 289 282 291 285 290
141 82 34 5 334 359 324 33 156 189 172 151 139 133 126 129 79 78 61 47 28 17 8 6 356 321 253 229 243 236 241 247 256 255 245 237 239 250 271 260 269 263 283 313 315 313 315 310 316
97 73 49 343 7 343 40 80 207 199 133 93 157 141 117 104 92 66 47 36 19 13 10 357 354 346 334 277 242 235 245 241 247 258 236 236 237 237 252 268 266 255 289 296 301 313 315 309 311
11 137 1 346 45 354 56 293 360 356 18 10 49 116 104 80 59 52 48 40 21 18 12 359 351 347 337 328 281 248 281 256 254 265 249 252 240 239 238 260 276 261 301 306 300 299 277 294 298
325 347 333 37 356 9 4 360 11 8 56 37 50 43 67 74 63 60 48 39 28 19 8 359 357 354 347 345 345 347 334 291 261 255 250 249 249 246 246 265 276 270 279 292 296 281 290 260 270
310 359 354 27 34 15 30 15 30 10 50 45 36 48 48 48 46 47 42 32 23 15 9 2 359 355 356 352 342 339 319 305 296 280 256 245 229 237 244 253 267 266 242 244 252 262 292 302 271
26 22 333 295 3 13 23 33 50 39 47 59 51 36 33 31 30 30 36 27 21 7 0 1 359 354 352 354 343 329 318 301 280 279 282 261 247 245 238 236 249 249 245 249 258 239 261 265 243
55 91 324 243 333 319 53 321 117 45 60 55 44 37 33 30 27 20 18 14 11 7 358 356 351 349 345 347 344 340 329 331 331 315 297 257 238 231 240 245 243 250 229 234 229 223 210 230 287
26 6 327 328 26 238 21 267 226 111 65 49 45 43 40 35 34 29 22 19 14 7 355 351 345 345 346 341 345 346 327 321 309 305 296 284 248 242 244 247 246 247 243 238 232 222 208 177 229
243 321 305 43 82 62 336 79 290 134 80 73 49 44 35 38 38 23 15 10 4 1 359 352 351 343 339 333 337 331 321 310 307 307 306 290 274 244 237 230 236 239 236 242 236 241 221 204 198
298 27 47 43 91 23 274 98 240 228 164 94 55 45 41 34 23 13 5 5 355 351 354 351 358 349 348 342 337 328 318 311 310 304 302 297 279 259 242 229 220 222 229 230 228 227 228 223 223
36 46 348 359 7 224 283 56 240 143 103 124 97 54 43 40 20 8 1 357 350 351 346 351 348 348 350 350 343 333 322 312 300 297 293 292 290 279 257 238 224 224 224 230 227 222 224 225 211
358 124 144 230 257 267 8 242 247 132 110 92 80 70 40 25 11 357 347 339 329 335 329 341 346 342 345 343 339 336 332 323 307 295 288 282 281 279 272 258 241 226 224 225 230 234 236 231 235
317 40 134 94 51 45 260 309 129 93 43 62 57 53 28 360 351 341 322 314 314 326 334 346 346 343 343 339 335 333 330 324 319 310 294 285 282 278 274 255 250 244 236 228 227 229 239 239 236
99 318 23 12 351 310 293 280 242 215 233 348 30 6 334 334 327 325 320 308 319 331 333 342 338 336 330 329 328 326 324 321 318 317 309 292 283 274 269 263 249 250 253 251 239 237 242 239 241
1 4 38 134 151 195 276 259 207 193 192 169 266 290 256 276 297 285 287 306 316 322 336 330 330 328 327 327 325 321 318 319 318 315 314 304 289 275 265 266 246 232 234 239 246 251 257 256 262
199 202 173 129 270 234 179 268 193 154 179 168 265 285 289 259 268 287 298 306 319 317 322 325 324 320 319 323 321 318 315 312 313 312 311 310 296 280 252 266 254 235 228 222 218 224 234 237 249